User: anonymous   Login
Location: Acheville
(50.3840°N, 2.8827°E)
Time: 10:13:23
(UTC+00:00)
Language:

CSL-04 Rocket - Orbit

View from above orbital plane
View from above orbital plane
View from above satellite
View from above satellite

Ground track
Ground track

The orbit data is extracted from the following two-line orbital elements,

1 25732U 99025C   22017.85874204 -.00000023  00000-0  10836-4 0  9992
2 25732  98.8767  59.5032 0037247 359.3710 174.4716 14.17711529173910
Epoch (UTC): 17 January 2022 20:36:35
Eccentricity: 0.0037247
inclination: 98.8767°
perigee height: 806 km
apogee height: 860 km
right ascension of ascending node: 59.5032°
argument of perigee: 359.3710°
revolutions per day: 14.17711529
mean anomaly at epoch: 174.4716°
orbit number at epoch: 17391

The dashed part of the orbit path shows where the satellite is in the earth's shadow,  

DLR